Temp
56 57 57 57 58 58 58 59 60 60 60 60 60 60 60 61 59 53 53 57 55 50 54 63 66 60 60 59 55 60 57 59 56 52 53 52 53 56 54 52 51 52 51 50 51 49 50 67 67 61 62 65 71 71
56 56 56 57 57 57 58 58 59 59 59 59 59 59 60 60 59 56 49 60 62 53 56 64 69 71 69 68 60 59 57 55 56 51 49 51 52 51 51 50 54 52 53 53 54 56 61 62 62 66 68 68 68 72
56 56 56 56 57 57 58 58 59 59 59 59 59 59 60 60 59 57 49 52 54 52 56 58 60 69 71 72 74 59 56 59 55 55 50 49 49 50 47 51 53 54 54 51 54 56 60 63 67 68 71 69 73 74
55 56 56 56 57 57 57 58 58 58 58 58 59 59 59 59 59 58 49 52 52 52 48 54 71 67 71 71 74 75 65 60 56 56 50 48 48 53 49 51 51 54 53 51 53 57 61 65 65 67 71 73 74 78
55 55 55 56 56 57 57 58 58 58 58 58 58 58 59 59 58 55 52 53 57 51 47 51 63 68 69 69 73 75 65 59 56 53 53 52 52 53 54 53 51 55 54 50 50 58 57 61 66 69 69 71 69 68
55 55 55 55 56 56 56 57 57 57 57 58 58 58 59 58 56 50 50 54 58 56 49 45 58 64 70 70 72 69 68 62 60 60 58 61 64 57 51 50 58 65 63 62 56 60 59 64 66 69 71 71 71 71
55 55 55 55 55 56 56 56 56 56 57 57 58 58 58 57 50 49 51 55 53 51 50 47 50 64 70 67 65 65 65 63 62 59 58 60 59 61 55 52 65 68 67 64 65 62 61 64 65 70 70 72 69 71
54 55 55 55 56 56 56 56 56 56 56 57 58 58 57 56 53 50 56 57 55 51 52 46 50 57 65 62 61 62 60 59 59 60 59 58 59 57 54 61 62 65 67 65 65 66 66 68 68 69 70 69 68 68
55 55 55 55 55 56 56 56 56 56 56 56 57 57 54 49 49 55 60 58 56 54 47 48 47 50 65 61 60 61 60 54 59 57 57 60 54 54 60 60 61 64 64 66 67 68 69 69 70 67 67 66 72 68
55 55 55 55 55 55 55 55 56 56 55 55 53 51 50 56 62 60 55 51 49 49 48 45 51 51 58 57 57 57 57 56 52 57 59 56 54 61 63 65 64 66 67 68 65 62 65 67 66 69 69 73 71 66
54 55 55 55 55 55 55 55 55 53 54 51 49 50 58 60 56 52 49 47 48 47 49 49 53 53 59 56 55 58 56 57 52 54 57 53 52 60 66 64 65 66 66 68 69 68 71 69 72 67 71 71 68 67
53 53 53 54 55 55 55 54 53 52 52 51 50 52 56 55 53 48 47 50 50 50 53 51 53 54 57 60 55 58 57 59 52 58 55 51 59 62 63 65 67 66 67 70 72 70 70 73 70 70 71 69 67 65
52 52 52 53 53 53 53 53 53 53 53 52 51 50 51 49 42 46 45 47 47 54 57 56 56 57 56 58 56 54 53 53 57 54 55 55 59 62 62 64 72 66 69 70 71 71 72 71 70 72 68 67 65 64
51 51 51 51 51 52 53 52 53 52 50 49 47 37 45 44 47 48 49 52 56 58 60 56 58 56 55 55 55 52 57 57 53 50 53 53 56 61 62 65 67 68 69 69 70 72 70 68 70 70 69 67 65 63
51 51 51 51 52 52 52 53 53 51 51 48 48 39 46 54 58 57 60 58 62 62 58 60 55 55 53 55 54 54 53 53 54 51 51 55 56 56 59 61 63 65 69 69 69 68 68 71 69 67 67 67 65 64
51 51 48 50 51 52 53 52 51 52 50 47 48 46 50 51 53 57 56 57 59 61 61 57 56 52 52 56 57 56 53 49 49 52 55 56 56 57 57 59 61 64 68 68 66 68 70 69 67 65 65 66 65 64
50 48 49 50 51 52 52 50 51 48 47 46 44 49 50 51 53 52 54 58 61 60 53 56 51 51 52 50 50 55 52 51 53 53 54 55 55 58 59 60 61 60 65 64 64 69 68 66 66 65 61 59 61 62
47 48 50 51 50 50 50 49 47 47 44 45 43 47 49 52 54 55 58 55 58 57 57 55 55 52 48 49 49 51 52 54 55 54 54 54 56 58 60 58 60 62 64 64 67 67 66 63 64 62 61 61 60 59
49 49 52 52 50 46 47 46 46 41 45 47 48 49 49 49 56 54 54 55 56 56 55 53 51 49 49 51 54 55 54 55 53 53 53 54 53 55 57 58 60 62 64 64 67 69 67 65 64 62 64 64 61 60
52 53 53 54 52 46 46 46 49 44 42 46 49 49 47 47 51 53 54 56 56 56 51 53 51 51 52 58 55 55 55 54 53 51 53 53 53 54 56 58 59 60 62 63 61 62 60 61 61 62 62 61 60 60
52 52 55 51 47 47 46 45 44 45 45 44 47 47 47 50 49 50 51 54 52 48 48 51 53 55 55 58 59 60 56 56 54 53 53 52 56 58 58 58 58 59 60 60 60 60 60 62 61 61 61 64 60 59
48 56 49 50 47 49 46 49 46 48 44 45 45 48 46 47 48 50 53 48 48 51 52 52 53 55 56 55 58 59 59 58 58 56 51 53 56 58 59 60 59 60 60 60 60 61 62 62 62 62 62 60 59 60
51 50 48 49 45 42 40 48 43 44 40 42 44 43 44 45 48 51 46 47 50 53 56 56 56 56 57 58 59 61 60 59 57 57 58 56 57 59 60 61 60 59 59 58 60 60 61 57 59 62 60 60 60 60
51 46 44 40 40 35 45 41 44 42 42 41 41 42 43 44 47 44 42 45 50 53 53 54 56 53 53 54 54 56 58 58 57 58 60 60 59 59 60 60 60 60 60 62 60 60 59 60 58 60 61 62 62 61
39 35 37 29 41 38 38 41 39 38 39 41 40 41 43 45 41 42 43 45 48 50 52 54 54 54 53 54 55 56 59 58 58 57 60 60 60 59 58 58 59 60 60 61 60 60 61 60 60 61 64 64 62 62
32 36 31 37 36 36 38 38 38 38 38 39 41 43 43 41 41 41 43 48 50 51 51 52 53 52 53 55 56 55 58 59 57 56 58 60 60 60 60 58 57 58 60 60 61 62 62 63 63 63 64 60 56 64
32 34 38 42 41 40 39 41 42 39 39 39 40 41 40 38 40 44 47 45 47 47 48 51 55 55 55 55 57 59 59 60 60 60 61 61 62 62 62 60 58 60 61 62 62 64 65 64 65 67 65 65 66 66
40 39 34 39 39 41 38 38 38 38 39 41 41 39 41 43 42 45 47 48 47 48 50 52 56 59 59 60 60 60 59 60 62 62 62 61 60 61 61 60 60 50 60 62 62 63 65 67 68 70 69 67 66 68
37 40 39 34 38 38 38 39 40 42 43 41 38 38 41 45 47 46 47 48 48 47 47 49 50 54 60 60 60 60 60 59 56 58 56 55 56 58 60 59 60 61 61 59 48 54 64 63 64 66 68 68 69 70
39 44 39 38 34 35 39 43 42 46 46 45 44 42 43 45 49 50 49 47 46 46 46 50 50 50 52 59 58 58 60 61 61 59 60 61 60 64 60 58 59 59 60 59 57 55 49 58 57 62 62 64 64 64
46 45 42 42 41 45 46 48 50 51 50 46 46 43 43 44 47 52 50 48 47 46 47 51 52 52 52 57 58 61 58 59 60 63 63 62 67 67 64 61 60 61 62 61 59 58 58 59 59 60 62 63 62 62
44 44 45 42 44 48 46 44 44 43 44 43 42 43 42 43 42 48 52 48 46 45 47 50 49 51 54 61 61 59 55 60 62 62 62 64 66 66 67 66 65 63 61 60 60 60 60 60 59 59 60 62 62 63
47 46 46 44 44 44 44 43 41 39 38 39 40 41 42 42 42 49 56 58 54 51 50 53 56 58 61 63 62 60 55 58 53 46 50 52 54 58 61 61 63 64 61 60 59 59 59 59 58 59 60 61 61 61
MSLP
1013.48 1013.28 1013.18 1013.04 1012.87 1012.76 1012.82 1012.92 1013.04 1013.22 1013.42 1013.61 1013.69 1013.63 1013.52 1013.52 1013.71 1013.93 1013.31 1012.56 1012.54 1012.08 1010.07 1008.55 1007.94 1007.37 1007.03 1006.78 1006.88 1006.16 1006.02 1005.84 1006.17 1006.84 1007.28 1007.24 1006.50 1005.59 1005.44 1005.98 1005.88 1005.95 1006.21 1006.15 1005.33 1004.69 1003.89 1002.41 1001.14 1001.79 1002.67 1001.39 1000.49 1001.76
1013.04 1012.88 1012.67 1012.49 1012.36 1012.21 1012.24 1012.40 1012.54 1012.77 1012.99 1013.19 1013.32 1013.35 1013.26 1013.28 1013.48 1013.61 1013.53 1011.94 1011.87 1011.99 1009.44 1007.87 1007.24 1006.57 1006.44 1006.45 1006.90 1006.48 1006.84 1007.10 1007.37 1008.42 1008.62 1008.60 1008.50 1007.89 1007.52 1007.56 1007.04 1007.39 1007.01 1006.69 1006.34 1005.59 1004.63 1003.87 1003.83 1003.29 1002.43 1002.12 1002.79 1002.19
1012.62 1012.38 1012.15 1012.02 1011.87 1011.68 1011.64 1011.84 1012.03 1012.29 1012.56 1012.78 1012.94 1013.00 1013.01 1013.04 1013.24 1013.45 1013.44 1012.63 1011.81 1011.18 1008.88 1007.27 1005.60 1004.65 1004.47 1004.48 1005.08 1006.29 1006.46 1006.59 1007.41 1007.86 1008.87 1009.45 1009.53 1009.49 1009.19 1008.87 1008.34 1008.22 1007.88 1007.56 1006.71 1005.75 1004.86 1004.00 1003.48 1003.12 1002.58 1002.79 1002.14 1002.51
1012.44 1012.14 1011.80 1011.52 1011.41 1011.22 1011.12 1011.29 1011.50 1011.80 1012.14 1012.37 1012.55 1012.64 1012.71 1012.80 1012.97 1013.12 1013.37 1012.59 1012.68 1012.00 1010.66 1006.91 1004.79 1003.98 1003.02 1003.23 1003.74 1003.77 1004.57 1006.04 1007.08 1007.56 1008.39 1009.04 1009.45 1009.00 1009.16 1009.03 1009.22 1008.64 1008.43 1008.18 1007.10 1005.72 1004.78 1004.06 1003.23 1003.24 1002.34 1002.20 1002.32 1001.83
1012.16 1011.86 1011.54 1011.25 1011.06 1010.93 1010.72 1010.83 1011.00 1011.35 1011.72 1011.97 1012.17 1012.31 1012.40 1012.50 1012.70 1012.79 1012.68 1012.07 1011.98 1012.36 1011.08 1008.25 1005.53 1002.79 1001.85 1001.91 1001.90 1002.88 1004.06 1005.46 1006.57 1007.53 1007.87 1008.23 1008.00 1008.45 1008.44 1008.21 1008.29 1007.95 1007.32 1007.50 1006.63 1005.07 1005.18 1003.95 1002.79 1002.56 1002.90 1001.89 1003.63 1003.33
1011.75 1011.54 1011.29 1010.96 1010.81 1010.75 1010.67 1010.71 1010.81 1011.10 1011.38 1011.65 1011.84 1012.00 1012.14 1012.30 1012.54 1012.81 1012.15 1011.11 1011.29 1011.58 1011.52 1009.23 1005.51 1002.81 1001.43 1001.17 1001.54 1002.39 1003.38 1004.28 1004.94 1005.69 1006.17 1005.79 1005.24 1006.36 1007.09 1007.21 1006.33 1006.03 1006.86 1005.97 1005.46 1004.24 1004.06 1002.96 1003.09 1002.87 1002.18 1002.00 1002.58 1003.69
1011.34 1011.02 1010.89 1010.78 1010.55 1010.50 1010.51 1010.55 1010.66 1010.89 1011.10 1011.38 1011.56 1011.74 1011.94 1012.20 1012.56 1012.48 1011.63 1011.02 1011.05 1011.76 1011.21 1009.55 1006.74 1003.05 1001.26 1001.13 1001.68 1002.13 1002.58 1003.52 1004.20 1005.01 1005.16 1005.04 1004.68 1004.96 1005.18 1005.28 1003.46 1004.16 1004.55 1004.75 1004.15 1004.35 1003.84 1002.85 1002.67 1002.14 1001.66 1000.87 1001.95 1002.49
1010.86 1010.53 1010.33 1010.42 1010.33 1010.30 1010.31 1010.38 1010.46 1010.64 1010.81 1011.07 1011.34 1011.62 1011.88 1012.06 1012.15 1011.53 1009.62 1009.46 1010.68 1011.30 1010.74 1009.64 1006.74 1004.12 1001.20 1001.59 1002.09 1002.12 1003.20 1003.64 1004.10 1004.41 1004.46 1004.43 1004.16 1004.16 1004.26 1003.25 1002.85 1003.03 1003.16 1003.26 1003.10 1002.95 1002.53 1002.56 1002.42 1002.73 1002.28 1001.77 1003.38 1004.83
1010.19 1010.10 1009.87 1009.98 1010.04 1010.06 1010.10 1010.15 1010.27 1010.37 1010.53 1010.80 1011.16 1011.60 1011.86 1011.93 1011.42 1009.76 1009.18 1009.21 1009.76 1010.64 1010.42 1009.23 1007.37 1004.95 1002.23 1002.12 1002.02 1002.40 1002.74 1004.09 1003.69 1004.04 1003.89 1003.62 1003.86 1003.68 1002.68 1002.49 1002.48 1002.17 1002.27 1001.83 1001.78 1002.32 1002.35 1002.79 1002.55 1002.45 1002.00 1002.53 1003.58 1004.53
1009.71 1009.67 1009.49 1009.66 1009.71 1009.76 1009.82 1009.87 1009.99 1010.12 1010.43 1010.79 1011.30 1011.45 1010.85 1009.68 1008.93 1009.26 1009.51 1009.85 1010.08 1009.98 1009.95 1008.90 1006.97 1005.66 1004.00 1003.13 1002.68 1002.77 1002.64 1003.25 1003.43 1002.99 1002.71 1002.89 1002.67 1001.68 1001.39 1001.25 1001.23 1001.04 1000.80 1001.16 1001.94 1002.10 1001.82 1001.72 1002.45 1001.69 1002.16 1002.24 1002.48 1003.46
1009.54 1009.35 1009.29 1009.34 1009.33 1009.42 1009.52 1009.59 1009.81 1010.26 1010.58 1011.00 1011.09 1010.65 1009.45 1009.10 1009.06 1009.20 1009.37 1009.53 1009.20 1009.07 1008.07 1006.73 1005.92 1005.17 1004.13 1003.89 1003.19 1002.36 1002.36 1002.23 1002.70 1002.35 1002.25 1002.40 1001.83 1000.66 1000.09 1000.38 1000.25 1000.00 1000.17 999.86 999.94 1000.09 1000.07 999.58 1000.05 1001.61 1002.03 1002.10 1002.89 1003.83
1009.87 1009.56 1009.36 1009.24 1009.28 1009.36 1009.49 1009.71 1009.97 1010.27 1010.47 1010.80 1010.79 1010.36 1009.71 1009.28 1009.05 1008.98 1008.54 1007.87 1007.43 1006.63 1005.36 1004.96 1004.18 1004.30 1003.61 1003.05 1003.18 1002.08 1002.05 1001.99 1001.86 1001.55 1001.99 1001.87 1000.39 999.51 999.32 999.25 999.29 999.28 999.45 999.46 999.25 999.29 999.77 1000.05 1000.11 1000.30 1001.31 1002.54 1003.21 1004.23
1010.46 1010.27 1010.17 1010.00 1009.88 1009.84 1009.89 1010.02 1010.20 1010.37 1010.36 1010.62 1010.67 1010.25 1009.43 1008.87 1008.56 1008.01 1007.07 1006.27 1005.51 1004.32 1003.50 1003.20 1003.19 1003.13 1003.00 1002.61 1002.70 1002.55 1002.29 1002.13 1001.47 1002.04 1002.14 1001.30 1000.03 999.24 998.78 998.70 998.47 998.81 998.88 998.93 999.11 999.14 999.09 999.43 1000.07 1000.62 1001.79 1002.91 1003.62 1004.92
1010.87 1010.77 1010.68 1010.60 1010.46 1010.25 1010.18 1010.24 1010.31 1010.39 1010.52 1010.32 1010.29 1010.02 1009.12 1007.86 1006.74 1005.80 1005.18 1004.46 1003.66 1002.96 1002.56 1002.45 1002.55 1002.73 1002.61 1002.66 1002.62 1002.72 1001.83 1001.55 1002.08 1002.40 1002.62 1002.82 1002.15 1000.53 999.65 998.89 998.40 998.65 998.70 998.97 998.97 999.08 999.22 999.43 999.94 1000.43 1001.38 1002.57 1003.57 1004.82
1011.12 1011.00 1010.94 1010.86 1010.65 1010.50 1010.33 1010.24 1010.27 1010.39 1010.12 1009.97 1009.70 1008.92 1007.61 1006.22 1005.30 1004.76 1004.01 1003.66 1002.60 1002.13 1002.00 1002.18 1002.58 1002.52 1002.77 1002.71 1002.49 1002.42 1002.29 1002.14 1002.47 1003.38 1003.80 1003.63 1002.88 1001.83 1000.76 1000.34 1000.44 999.20 998.71 998.68 998.82 998.95 999.26 999.52 1000.26 1001.35 1002.27 1002.94 1003.81 1005.03
1011.21 1011.04 1011.25 1011.08 1010.72 1010.52 1010.36 1010.28 1010.23 1010.01 1009.79 1009.72 1009.14 1008.20 1006.83 1006.03 1005.29 1004.32 1003.63 1003.18 1002.35 1002.21 1001.89 1002.32 1002.72 1003.22 1003.06 1002.79 1002.63 1002.41 1002.66 1003.44 1004.27 1004.64 1004.49 1004.01 1003.26 1002.18 1001.86 1001.54 1001.47 1001.19 999.53 998.68 998.61 998.88 999.26 999.88 1000.68 1001.75 1002.80 1003.64 1004.58 1005.14
1011.21 1011.09 1011.15 1011.11 1010.90 1010.57 1010.30 1010.18 1009.89 1009.81 1009.70 1009.31 1008.58 1007.56 1007.12 1006.48 1005.49 1004.92 1004.23 1003.68 1002.63 1002.61 1002.73 1002.83 1003.34 1003.53 1003.38 1003.23 1003.22 1003.11 1003.93 1004.51 1004.66 1004.64 1004.37 1004.26 1004.01 1002.31 1002.34 1001.82 1001.87 1001.47 1000.40 999.10 999.04 999.28 999.77 1000.37 1001.17 1002.17 1003.37 1004.28 1004.67 1005.55
1011.35 1011.33 1011.22 1011.05 1010.94 1010.70 1010.37 1010.29 1010.17 1009.91 1009.52 1008.83 1008.38 1007.35 1006.75 1006.14 1005.53 1004.68 1004.13 1003.90 1003.51 1003.37 1003.32 1003.40 1003.35 1003.77 1003.84 1003.60 1003.85 1004.12 1004.16 1004.32 1004.49 1004.37 1004.27 1004.29 1004.16 1003.63 1003.51 1003.05 1002.25 1002.35 1000.05 999.59 999.27 999.88 1000.47 1001.08 1001.77 1002.85 1003.64 1004.44 1005.27 1006.35
1011.31 1011.34 1011.22 1011.14 1011.10 1010.93 1010.41 1010.43 1010.45 1009.86 1008.86 1008.29 1007.70 1006.89 1006.54 1005.87 1005.12 1004.75 1004.39 1004.01 1003.92 1003.77 1003.72 1003.90 1004.13 1004.14 1004.05 1003.72 1003.78 1004.08 1003.96 1004.21 1004.45 1004.26 1004.09 1003.80 1003.53 1003.37 1003.37 1003.07 1002.58 1000.77 999.71 999.83 999.57 999.91 1000.44 1000.84 1001.55 1002.67 1003.74 1004.53 1005.41 1006.46
1010.92 1010.82 1010.78 1010.84 1010.96 1010.77 1010.21 1009.92 1009.84 1009.47 1008.64 1007.57 1006.98 1006.62 1006.26 1005.55 1004.94 1004.56 1004.45 1004.21 1004.26 1004.07 1004.27 1004.41 1004.28 1003.97 1003.75 1003.37 1003.35 1003.60 1003.70 1003.83 1004.42 1004.56 1004.40 1003.54 1003.28 1002.81 1001.94 1001.37 1000.89 1000.41 1000.17 999.79 1000.22 1000.28 1001.16 1001.96 1002.41 1002.63 1003.51 1004.21 1005.15 1005.96
1010.50 1010.20 1010.13 1010.54 1010.68 1010.56 1010.07 1009.44 1009.18 1008.49 1007.81 1007.39 1006.56 1006.25 1005.72 1004.93 1004.64 1004.44 1004.35 1004.11 1004.45 1004.44 1004.57 1004.22 1003.82 1003.37 1003.17 1003.06 1002.98 1003.10 1003.50 1003.77 1004.02 1004.06 1004.07 1003.69 1002.67 1002.65 1002.20 1001.21 1000.75 1000.98 1001.17 1000.92 1001.05 1001.18 1001.03 1001.52 1002.19 1002.72 1003.41 1004.16 1005.02 1005.37
1010.40 1010.04 1010.21 1010.21 1010.25 1009.75 1009.40 1008.59 1008.36 1007.81 1007.65 1007.02 1006.51 1005.84 1005.39 1004.89 1004.33 1003.93 1003.75 1004.04 1004.06 1003.87 1003.66 1003.67 1003.50 1003.30 1003.05 1002.87 1002.79 1002.74 1002.65 1002.99 1003.06 1003.31 1003.38 1003.24 1003.07 1002.28 1001.41 1001.28 1000.97 1000.86 1000.79 1001.26 1001.32 1001.63 1001.72 1001.88 1002.42 1002.90 1003.62 1004.34 1004.69 1005.49
1010.25 1010.12 1010.01 1009.89 1009.88 1009.44 1008.90 1008.12 1008.15 1007.75 1007.49 1006.68 1005.82 1005.43 1004.83 1004.28 1003.64 1003.10 1003.53 1003.26 1003.12 1002.76 1002.68 1002.62 1002.51 1002.34 1002.50 1002.16 1002.16 1001.98 1002.01 1002.25 1002.80 1002.94 1002.67 1002.58 1002.52 1002.61 1002.38 1002.06 1001.93 1001.68 1001.29 1001.65 1001.47 1001.82 1002.07 1002.25 1002.48 1002.82 1003.63 1004.38 1004.97 1005.62
1010.14 1010.23 1009.96 1009.86 1009.77 1009.42 1008.58 1008.18 1007.74 1007.60 1007.03 1006.54 1005.96 1005.19 1004.52 1003.92 1003.25 1003.36 1003.13 1002.94 1002.75 1002.43 1002.27 1002.19 1002.11 1002.04 1002.03 1002.01 1002.02 1001.70 1001.60 1001.57 1001.82 1001.99 1001.84 1001.88 1001.81 1001.75 1001.52 1001.55 1001.30 1001.04 1001.17 1000.88 1001.55 1002.20 1002.55 1002.56 1002.59 1003.09 1003.76 1004.41 1004.83 1005.33
1010.65 1010.41 1010.34 1009.92 1009.34 1009.06 1008.31 1007.58 1007.66 1007.52 1006.85 1006.20 1005.76 1005.07 1004.25 1003.64 1003.68 1003.44 1003.01 1002.76 1002.41 1002.30 1001.91 1001.71 1001.59 1001.42 1001.69 1001.39 1001.09 1000.93 1000.55 1000.76 1001.17 1001.41 1000.95 1000.96 1000.97 1001.21 1001.20 1001.47 1001.59 1001.44 1001.62 1001.59 1001.89 1002.34 1002.62 1002.89 1003.26 1003.23 1003.53 1003.85 1004.48 1005.19
1010.32 1009.67 1009.42 1008.71 1008.57 1008.31 1007.63 1007.14 1006.83 1006.60 1006.39 1005.94 1005.40 1004.64 1004.10 1004.18 1004.03 1003.50 1002.55 1001.96 1001.83 1002.10 1002.22 1001.77 1001.37 1001.14 1000.96 1000.67 1000.51 1000.38 1000.28 999.95 1000.32 1000.75 1000.25 1000.28 1000.31 1000.71 1000.84 1001.13 1001.58 1002.12 1001.83 1001.51 1001.20 1001.47 1001.67 1002.24 1002.78 1003.01 1003.20 1003.56 1004.01 1004.68
1009.46 1008.71 1007.98 1007.34 1007.06 1006.95 1006.64 1006.15 1005.89 1005.91 1005.74 1005.48 1004.88 1004.63 1004.50 1004.23 1003.70 1003.05 1002.03 1002.61 1002.73 1002.66 1002.35 1001.90 1001.19 1000.59 1000.07 1000.01 999.62 999.43 999.36 999.50 999.82 999.83 999.66 999.57 999.38 999.50 1000.02 1000.43 1000.76 1000.89 1001.02 1001.54 1001.23 1001.12 1001.33 1002.11 1002.43 1002.37 1002.76 1003.29 1003.66 1004.15
1008.00 1007.46 1007.14 1006.75 1006.67 1006.12 1006.22 1006.02 1005.80 1005.58 1005.30 1004.91 1004.80 1004.52 1004.01 1003.14 1002.71 1002.48 1002.42 1002.37 1002.41 1002.20 1001.78 1001.37 1000.93 999.92 999.00 998.85 998.90 998.85 998.92 998.96 999.08 999.10 999.04 998.95 998.90 999.01 999.26 999.81 1000.07 1000.47 1000.53 1000.89 1001.42 1001.59 1001.51 1001.53 1001.67 1001.88 1002.25 1002.80 1003.44 1003.77
1006.86 1006.26 1006.18 1006.19 1005.96 1005.72 1005.56 1005.27 1004.90 1004.23 1003.76 1003.96 1004.06 1003.77 1003.12 1002.52 1002.08 1001.91 1001.96 1001.82 1001.84 1001.92 1001.95 1001.72 1001.09 1000.79 999.95 998.81 998.60 998.58 998.55 998.90 999.27 999.18 999.25 999.52 999.76 999.77 999.58 999.54 999.86 1000.00 1000.03 1000.70 1001.15 1001.42 1001.29 1001.31 1001.24 1001.39 1001.76 1002.26 1002.90 1003.39
1005.35 1005.09 1005.11 1004.97 1005.06 1004.82 1004.21 1003.91 1003.45 1002.99 1002.95 1003.04 1003.11 1002.96 1002.68 1002.34 1001.97 1001.59 1001.53 1001.50 1001.66 1001.85 1001.71 1001.83 1001.47 1001.27 1000.85 1000.14 999.15 998.90 998.53 998.37 998.59 998.89 998.76 998.81 998.85 998.90 999.33 999.31 999.29 999.49 999.72 1000.36 1001.05 1001.55 1001.75 1001.87 1001.97 1002.01 1002.09 1002.17 1002.85 1003.21
1003.39 1003.28 1003.51 1003.29 1003.00 1002.55 1002.39 1002.22 1002.15 1002.21 1002.29 1002.28 1002.30 1002.46 1002.23 1001.99 1001.35 1000.93 1001.03 1001.03 1001.08 1001.24 1001.18 1000.80 1000.45 1000.70 1000.82 999.67 998.85 998.56 998.66 998.46 998.21 998.08 997.99 997.98 997.73 997.73 998.10 998.62 998.87 999.08 999.59 1000.14 1000.93 1001.56 1001.74 1001.71 1001.93 1002.19 1002.35 1002.58 1002.96 1003.10
1001.96 1001.78 1001.72 1001.57 1001.13 1000.79 1000.89 1001.18 1001.34 1001.33 1001.14 1001.16 1000.72 1001.01 1001.28 1001.22 1000.78 1000.08 999.31 999.82 1000.17 1000.37 1000.19 1000.00 1000.89 1000.12 999.51 999.00 997.95 997.88 997.73 997.92 997.86 997.71 997.58 997.40 997.37 996.94 997.03 997.70 998.11 998.55 999.37 1000.13 1000.54 1000.80 1001.07 1001.44 1001.79 1002.08 1002.44 1002.78 1002.98 1003.13
1000.49 1000.42 1000.38 1000.45 1000.32 1000.29 1000.58 1001.01 1000.86 1000.65 1000.52 1000.21 999.92 999.80 999.83 999.98 999.36 998.28 997.31 997.62 998.37 998.98 998.82 998.62 998.69 998.96 998.82 998.20 997.48 997.68 997.83 997.83 997.71 997.61 997.06 997.01 996.95 997.17 997.49 997.75 998.02 998.51 999.05 999.67 1000.21 1000.68 1001.06 1001.35 1001.71 1002.02 1002.37 1002.50 1002.72 1003.26
Wind_Speed
10 11 12 12 12 12 12 12 11 10 10 9 7 8 9 6 3 3 5 5 3 2 8 7 5 4 4 0 2 5 6 5 5 6 3 3 3 2 5 3 3 2 3 1 2 1 2 10 8 8 6 8 13 7
10 11 11 12 12 12 12 12 12 11 11 9 8 8 8 6 1 2 3 4 3 4 8 4 14 19 14 14 1 3 4 4 4 4 0 3 4 5 2 2 2 3 3 4 5 6 6 4 6 5 2 5 3 8
9 10 11 11 11 12 12 13 13 12 11 10 8 8 8 6 3 2 3 4 3 3 7 3 10 12 11 18 14 5 3 5 3 4 4 2 4 1 3 4 5 3 3 0 3 3 5 8 4 7 5 1 7 9
11 11 10 9 9 10 11 12 13 13 12 10 8 8 8 6 5 3 2 2 1 3 3 9 3 12 4 6 15 17 7 6 6 3 3 4 4 4 4 2 1 3 3 3 6 8 7 6 2 1 6 7 5 14
10 11 10 9 8 8 7 11 12 11 10 9 8 8 8 6 4 4 4 5 6 2 4 7 15 11 9 6 10 18 8 7 4 2 3 5 4 4 3 3 2 5 6 5 8 7 5 8 3 1 6 3 2 10
10 10 10 9 8 7 6 6 7 8 8 8 8 8 6 4 2 2 4 1 6 2 2 5 6 8 6 3 8 9 9 4 4 5 4 3 7 5 5 5 9 13 15 7 7 9 10 10 1 10 6 4 6 8
12 11 10 9 8 7 7 7 8 7 7 7 7 7 5 4 2 3 4 3 4 3 2 6 6 7 6 3 1 3 3 3 4 3 2 3 2 6 4 3 9 19 21 11 6 5 6 8 2 6 4 8 9 14
13 12 9 9 8 7 7 7 7 7 7 8 7 6 5 3 5 6 5 14 5 1 1 3 7 6 2 2 1 2 3 2 2 4 2 3 2 2 2 7 5 10 13 11 13 14 5 5 9 10 5 12 12 12
11 10 8 8 8 8 8 8 8 7 7 8 7 3 1 2 3 4 2 12 2 4 2 3 3 5 7 3 0 3 4 2 1 4 5 5 2 5 8 9 9 10 11 10 11 13 13 12 13 6 5 8 16 17
8 8 6 7 7 8 9 8 8 8 10 10 2 2 3 5 6 5 3 3 1 2 2 4 3 5 3 4 4 2 2 5 3 7 3 4 6 7 7 13 11 10 11 8 8 6 8 11 11 14 19 19 17 15
6 6 6 7 7 8 8 8 12 14 6 1 3 3 2 0 2 1 3 3 3 4 5 6 8 6 4 1 4 3 3 3 3 7 6 4 5 7 10 10 10 9 8 10 9 4 6 5 5 9 9 14 16 17
12 10 7 6 6 8 10 12 12 2 2 1 1 3 3 3 2 3 4 3 5 6 4 5 6 6 4 3 2 4 2 2 5 1 4 3 9 8 7 11 11 9 10 9 8 9 7 7 4 8 14 14 15 15
12 13 11 8 7 7 7 5 6 1 3 2 1 2 2 2 2 6 7 4 4 4 4 4 3 5 2 1 0 1 1 5 2 2 4 6 6 6 10 7 15 7 7 6 7 6 9 7 10 15 14 11 16 13
9 10 10 9 6 3 4 3 3 2 0 2 4 3 5 5 6 6 5 4 6 3 3 1 2 4 2 3 3 1 5 1 2 4 6 4 12 12 9 5 5 8 9 10 10 9 7 9 12 15 18 18 17 15
5 7 7 9 8 4 3 1 2 1 1 3 3 5 6 5 4 5 7 3 4 2 3 2 3 3 2 1 3 0 3 4 4 1 4 8 12 8 14 17 15 3 5 7 7 7 10 16 15 13 13 15 14 14
5 4 2 8 11 8 3 3 2 2 1 2 4 3 5 3 3 5 1 3 2 3 2 3 2 3 2 1 2 4 2 4 3 2 5 9 9 6 10 15 15 17 6 2 6 9 13 15 17 15 12 13 14 14
4 1 2 6 10 11 6 1 1 2 2 3 4 3 5 6 5 3 2 4 5 4 2 3 3 5 2 1 2 3 3 2 3 4 3 4 8 8 8 15 19 21 13 2 7 11 11 12 15 15 13 6 10 9
1 1 3 7 7 4 1 2 1 1 4 4 3 4 3 3 4 4 3 3 4 3 2 1 3 3 1 2 2 2 3 3 4 4 3 3 5 1 2 5 20 19 6 3 9 11 14 14 14 9 12 12 11 8
0 2 4 6 2 2 1 2 2 3 4 3 4 5 3 4 4 4 3 3 1 2 2 3 2 2 3 2 3 3 2 3 3 2 3 6 6 6 8 11 14 7 6 3 10 11 11 14 13 11 11 11 10 7
8 11 10 7 3 2 3 2 2 3 3 4 3 4 3 4 3 3 3 2 1 2 1 2 4 4 3 2 3 3 2 3 1 2 4 5 4 7 8 5 3 6 9 1 3 10 8 7 6 10 10 10 11 9
3 2 4 5 2 3 3 2 3 4 3 3 3 2 4 2 3 4 3 2 2 4 3 3 3 4 2 2 2 4 5 5 5 5 5 3 4 5 5 6 4 5 6 3 5 6 9 10 9 8 10 10 7 6
3 2 1 4 2 3 4 4 3 3 1 4 3 3 3 3 3 4 2 3 5 5 5 4 4 4 5 4 4 6 6 8 6 3 1 3 4 6 8 4 4 4 6 5 4 7 6 7 7 8 8 7 6 6
6 1 2 2 2 0 7 1 2 3 3 4 2 2 3 2 4 2 2 4 4 5 6 6 7 7 7 7 5 7 7 5 4 5 5 5 5 5 5 8 3 2 4 5 5 1 7 9 8 10 6 8 7 6
2 2 2 3 5 4 3 3 1 2 4 3 3 4 3 4 1 1 4 3 4 3 2 4 4 4 2 2 5 6 5 5 5 4 5 5 3 4 3 4 3 3 2 3 6 4 4 3 10 7 9 10 10 10
1 5 4 5 4 2 4 4 5 2 4 5 3 4 4 3 1 2 4 3 2 3 4 5 4 5 5 5 5 5 7 6 6 6 6 5 4 2 1 2 2 2 3 7 7 7 3 4 1 6 10 11 11 12
4 6 7 8 4 4 5 3 6 8 4 3 4 4 1 1 2 5 4 4 4 0 3 3 3 3 4 6 5 4 4 4 4 3 5 5 4 4 3 2 3 3 4 4 8 9 7 7 5 8 9 10 13 12
5 6 6 5 4 4 3 3 1 1 3 4 3 3 2 4 5 6 0 4 3 2 3 5 6 5 6 5 4 4 3 2 4 5 4 5 6 5 5 4 5 5 6 6 6 8 11 8 6 10 10 9 12 11
6 4 6 5 4 4 5 4 5 6 5 4 1 4 5 6 6 2 2 3 3 3 3 4 7 8 5 6 5 3 2 1 2 3 3 3 2 4 6 4 6 10 5 4 5 5 8 6 7 10 12 13 10 9
5 5 4 5 2 1 5 7 6 5 4 4 5 4 5 3 4 2 2 3 1 4 5 7 9 8 10 2 3 4 3 2 3 3 4 2 2 2 3 4 5 5 5 5 1 4 7 5 6 7 9 9 8 6
7 7 4 6 6 7 6 6 5 4 4 5 4 2 4 4 4 5 3 2 1 2 2 3 3 5 8 8 3 3 4 4 4 4 4 4 4 5 5 5 5 4 4 6 6 5 5 6 4 3 4 6 5 3
4 6 5 7 9 9 10 9 9 9 8 7 5 9 12 6 4 5 5 4 4 4 1 2 6 5 8 10 4 4 3 3 3 6 6 4 7 6 9 8 6 6 6 7 8 5 5 5 5 6 7 7 6 4
4 7 8 9 8 4 3 3 3 5 9 12 15 10 11 9 10 5 5 5 5 4 5 4 7 12 11 10 3 3 8 3 3 4 8 5 4 1 8 7 6 6 7 6 6 6 7 6 5 6 8 9 7 8
6 5 5 3 3 2 1 2 3 4 3 3 4 7 9 8 8 5 4 10 8 6 5 7 11 11 15 10 6 4 4 4 2 3 5 9 10 8 6 4 5 7 8 6 6 6 7 8 7 7 9 10 9 8
Wind_Direction
281 279 278 277 277 261 243 229 219 220 222 231 247 277 280 284 356 47 265 233 174 255 275 251 266 247 327 159 151 278 22 345 25 65 62 337 7 345 60 357 333 152 110 44 10 20 242 351 353 65 281 347 166 167
285 284 282 280 280 265 241 225 215 215 222 228 238 262 269 268 304 73 282 320 296 188 245 242 259 250 229 232 315 320 195 191 181 108 118 125 13 358 23 300 314 304 193 189 159 205 239 268 218 234 86 114 277 155
293 289 282 279 277 267 237 223 212 210 216 223 232 251 260 250 235 164 277 299 344 306 291 262 241 253 225 216 198 174 268 164 168 162 156 157 110 171 21 358 326 16 351 331 25 266 260 290 309 23 27 81 220 193
309 309 299 290 290 284 233 222 212 207 209 215 227 242 255 238 239 200 222 267 343 271 265 281 334 287 242 210 201 205 149 95 103 99 114 128 150 201 181 185 148 213 357 292 278 278 303 195 218 261 324 17 311 182
305 302 303 293 290 292 253 220 201 194 202 212 227 237 245 235 258 258 231 226 218 160 266 286 300 266 259 234 209 194 140 132 150 120 138 195 147 145 185 138 222 170 211 169 234 225 207 256 245 286 281 104 4 38
301 297 290 287 279 270 250 203 192 199 208 218 222 231 227 204 37 351 325 334 206 190 278 301 285 289 302 329 173 172 167 163 150 153 202 227 172 125 125 191 228 273 242 207 222 217 220 259 299 275 189 180 23 27
294 291 279 271 266 258 234 213 206 211 214 213 219 212 196 165 126 194 211 197 140 117 236 303 293 268 242 186 113 89 82 152 132 177 211 202 237 168 129 169 226 214 229 219 235 168 291 286 275 153 58 6 358 23
294 285 268 256 249 245 230 217 211 214 216 217 189 180 185 215 278 296 246 234 150 276 34 271 271 321 164 148 161 148 128 67 339 190 328 198 346 115 217 240 203 193 217 221 206 206 210 246 304 126 92 129 251 260
285 277 261 245 237 234 228 218 216 214 207 162 144 133 154 175 226 240 60 123 124 135 225 254 240 272 349 345 263 38 110 108 232 182 217 124 212 213 222 187 209 205 192 217 223 209 230 234 221 250 158 198 208 171
293 281 256 241 234 231 223 213 208 188 144 120 109 149 229 214 140 113 19 65 21 263 248 238 264 268 26 358 312 127 167 191 170 233 108 158 234 233 215 199 208 214 211 175 150 206 213 173 197 185 196 173 152 131
310 283 254 243 236 220 211 188 132 112 107 133 180 221 294 301 69 163 210 171 180 236 211 230 201 238 301 236 251 197 215 187 175 257 147 224 247 232 203 206 211 212 203 199 193 184 280 168 178 124 148 140 137 138
34 40 62 95 118 129 135 140 138 107 125 126 302 280 275 213 201 192 216 245 189 226 216 188 215 182 252 177 144 299 228 64 240 175 95 275 248 241 209 205 214 203 201 221 211 218 189 245 184 107 143 133 134 133
46 41 36 44 80 107 115 133 172 348 313 154 77 303 183 246 172 202 201 226 217 232 233 208 203 165 296 94 85 18 310 235 56 100 229 232 272 227 208 199 224 173 195 209 225 240 274 245 159 142 126 134 131 133
48 37 32 26 15 39 118 156 182 237 216 173 158 260 210 206 231 201 220 209 240 233 294 135 116 162 191 104 177 185 248 88 267 169 227 3 337 345 345 297 154 190 186 207 215 234 206 145 139 139 140 143 138 138
53 36 16 1 2 344 303 174 195 227 291 210 176 222 228 247 288 259 245 264 267 228 60 49 29 76 347 136 188 325 287 234 196 274 1 322 316 343 16 17 351 342 182 186 180 152 138 134 131 127 141 137 134 137
348 326 45 341 347 331 315 251 220 228 236 234 226 261 275 284 315 317 356 300 313 335 73 48 94 59 283 204 294 228 290 23 24 316 292 326 308 338 8 5 344 327 285 204 139 136 135 136 141 140 134 139 144 145
325 26 355 333 333 325 296 302 276 208 244 241 259 268 261 262 262 258 296 337 323 28 129 106 99 212 280 78 247 44 62 197 209 254 279 295 319 29 324 352 325 322 308 170 120 135 127 121 126 123 125 133 122 136
293 147 274 311 328 308 322 19 335 251 241 242 252 274 286 280 316 305 341 327 25 4 29 86 121 56 291 351 79 249 198 215 204 218 244 285 310 324 41 175 258 259 335 299 132 131 129 130 133 133 130 129 118 128
85 256 258 279 300 297 229 188 212 247 243 266 257 262 229 253 258 238 253 292 261 251 66 38 79 186 242 205 143 192 186 210 262 305 295 292 279 248 217 220 238 273 352 175 159 150 154 153 145 141 140 140 139 151
276 266 252 253 207 254 241 202 184 249 254 235 235 245 244 232 250 275 301 302 136 92 21 190 209 199 166 261 181 200 206 173 153 329 288 302 282 290 300 280 300 348 328 230 114 117 110 108 130 138 144 144 146 160
276 254 157 166 199 226 273 239 240 229 254 253 274 241 252 246 235 231 231 199 123 174 203 227 251 275 200 236 205 159 175 171 205 197 208 285 316 325 290 314 342 344 316 255 140 142 137 157 152 144 139 146 156 135
258 276 212 201 249 242 240 224 215 282 290 256 302 217 239 243 244 238 208 159 198 217 183 190 216 228 271 268 220 217 209 203 213 216 206 279 285 322 327 310 309 315 335 299 129 160 164 146 142 142 138 146 136 145
293 209 248 233 287 67 255 330 196 229 247 253 273 243 254 239 231 114 207 206 208 206 206 205 217 214 219 238 213 229 208 182 202 230 235 218 213 223 224 277 281 296 14 31 50 115 148 150 151 144 127 141 143 146
345 258 226 221 185 255 282 219 249 322 290 271 278 274 273 235 288 61 242 213 223 224 206 226 209 228 257 225 210 231 230 209 215 235 248 260 272 276 228 264 333 34 105 120 74 34 49 141 154 142 150 156 155 157
191 269 133 255 279 249 263 190 164 233 247 224 223 276 278 20 5 279 258 260 230 238 230 223 221 198 199 223 234 233 234 196 213 215 238 212 247 301 297 211 190 167 146 125 142 158 137 47 257 158 156 152 153 164
229 237 183 194 216 200 208 224 197 203 213 228 244 251 46 37 263 259 249 224 214 151 340 286 246 251 249 204 207 218 253 244 174 201 246 204 207 189 245 227 144 179 225 184 143 145 150 216 198 167 153 157 155 159
234 246 227 218 211 187 249 265 18 113 223 221 230 182 188 228 237 242 55 20 40 310 277 310 316 237 217 220 214 180 190 99 154 205 230 231 225 196 172 204 203 199 165 183 186 182 177 194 205 174 158 163 168 170
226 252 209 224 216 209 204 212 194 211 217 224 177 215 214 215 215 220 179 205 201 279 339 332 323 317 201 169 174 164 228 201 314 331 310 359 11 106 114 131 116 116 111 158 183 191 199 194 175 172 164 171 182 187
236 243 186 247 240 213 214 201 216 229 201 169 191 221 248 274 308 313 247 210 154 50 15 341 329 349 327 253 173 179 184 139 189 248 295 342 313 292 182 155 154 154 145 131 83 242 199 158 147 134 139 142 167 167
230 203 222 192 185 217 222 194 224 228 209 194 186 276 279 266 255 269 252 224 215 224 217 241 282 322 304 297 253 242 218 194 185 177 209 243 226 184 196 189 169 169 133 125 137 119 109 117 104 86 102 100 104 79
247 169 211 218 231 227 224 221 229 231 233 226 225 241 256 274 257 248 240 214 191 179 190 296 310 296 298 290 260 196 221 275 239 257 238 244 270 239 187 194 175 142 147 153 155 175 165 142 149 152 149 128 87 64
216 220 233 246 256 243 121 165 206 229 243 245 244 232 238 238 247 255 197 148 161 188 220 138 247 267 279 276 238 199 169 188 255 268 269 217 240 190 168 167 165 149 141 151 155 156 163 164 160 163 159 144 118 76
229 229 227 252 287 243 180 161 229 266 277 283 240 219 220 224 229 251 193 184 167 184 227 231 243 258 253 234 166 142 130 146 42 34 136 142 123 97 82 88 122 137 136 143 138 144 151 156 160 157 159 149 127 118